PBO Station Position Time Series. Reference Frame : NAM14
Format Version,1.1.0
4-character ID,GOUT
Station name,GOUT_EBRY_UT2007
Begin Date, 2007-09-26
End Date, 2019-10-07
Release Date, 2019-10-08
Reference position, 39.9137378962 North Latitude, -111.8965138596 East Longitude, 1509.33117 meters elevation,
Date, North (mm), East (mm), Vertical (mm), North Std. Deviation (mm), East Std. Deviation (mm),              Vertical Std. Deviation (mm), Quality,
2007-09-26,0.00, 0.00, 0.00, 2.07, 1.60, 7.09, repro,
2007-09-27,-0.89, 0.48, 0.95, 2.12, 1.64, 7.27, repro,
2007-09-28,0.24, 1.78, 1.08, 2.09, 1.64, 7.16, repro,
2007-09-29,-2.96, -0.18, -2.82, 2.07, 1.62, 7.10, repro,
2007-09-30,0.29, 0.19, -6.26, 2.21, 1.71, 7.54, repro,
2007-10-01,-2.92, 1.89, 0.80, 2.15, 1.73, 7.56, repro,
2007-10-02,-1.21, 0.06, 1.22, 2.15, 1.71, 7.55, repro,
2007-10-03,-0.42, 5.72, 9.03, 2.09, 1.65, 7.23, repro,
2007-10-04,-3.78, 3.03, 20.48, 2.08, 1.64, 7.14, repro,
2007-10-05,-4.37, 1.61, 12.26, 2.13, 1.67, 7.31, repro,
2007-10-06,-0.92, 0.47, 7.90, 2.13, 1.67, 7.37, repro,
2007-10-07,-1.05, 0.67, -4.60, 2.15, 1.67, 7.40, repro,
2007-10-08,-1.84, 1.39, -0.38, 2.33, 1.78, 8.07, repro,
2007-10-09,-2.14, 1.14, -1.01, 2.33, 1.87, 8.08, repro,
2007-10-10,-2.24, 3.45, 0.45, 2.26, 1.70, 7.64, repro,
2007-10-11,-1.21, 1.36, -2.60, 2.12, 1.67, 7.33, repro,
2007-10-12,-1.46, 1.93, 2.17, 2.12, 1.67, 7.35, repro,
2007-10-13,-2.68, 1.28, 0.98, 2.05, 1.61, 7.06, repro,
2007-10-14,-1.73, 1.58, -2.81, 2.06, 1.63, 7.12, repro,
2007-10-15,-1.93, 1.95, -2.82, 2.05, 1.62, 7.10, repro,
2007-10-16,-0.52, 1.36, 4.38, 2.06, 1.62, 7.07, repro,
2007-10-17,-0.62, 1.38, 7.32, 2.07, 1.62, 7.13, repro,
2007-10-18,-2.30, 0.18, 0.17, 2.05, 1.61, 7.08, repro,
2007-10-19,-1.09, 3.33, 8.83, 2.05, 1.61, 7.08, repro,
2007-10-20,-0.79, 1.91, 6.10, 2.10, 1.66, 7.28, repro,
2007-10-21,-1.59, 0.43, -1.94, 2.06, 1.62, 7.10, repro,
2007-10-22,-1.98, 1.45, -5.38, 2.05, 1.61, 7.07, repro,
2007-10-23,-1.45, 1.69, -10.74, 2.12, 1.66, 7.32, repro,
2007-10-24,-2.69, 1.52, -10.19, 2.12, 1.70, 7.41, repro,
2007-10-25,-2.86, 1.13, -8.08, 2.06, 1.61, 7.08, repro,
2007-10-26,-2.93, 1.78, -8.67, 2.09, 1.66, 7.25, repro,
2007-10-27,-3.28, 1.86, -10.66, 2.06, 1.61, 7.08, repro,
2007-10-28,-3.57, 1.96, -8.96, 2.06, 1.61, 7.10, repro,
2007-10-29,-3.26, 2.48, -6.38, 2.05, 1.60, 7.07, repro,
2007-10-30,-3.46, 0.94, -4.07, 2.05, 1.60, 7.05, repro,
2007-10-31,-3.35, 1.85, -8.05, 2.06, 1.61, 7.09, repro,
2007-11-01,-2.44, 2.31, -11.92, 2.03, 1.58, 6.96, repro,
2007-11-02,-2.99, 2.83, -5.19, 2.04, 1.58, 6.99, repro,
2007-11-03,-3.30, 2.79, -10.49, 2.02, 1.58, 6.96, repro,
2007-11-04,-3.27, 2.35, -7.47, 2.02, 1.57, 6.96, repro,
2007-11-05,-2.82, 2.79, -11.15, 2.03, 1.57, 6.94, repro,
2007-11-06,-2.99, 2.31, -10.85, 2.10, 1.69, 7.38, repro,
2007-11-07,-2.65, 2.27, -5.68, 2.05, 1.59, 7.02, repro,
2007-11-08,-3.08, 3.64, -8.39, 2.07, 1.62, 7.16, repro,
2007-11-09,-3.69, 3.00, -8.41, 2.06, 1.61, 7.09, repro,
2007-11-10,-2.46, 2.74, -6.45, 2.03, 1.57, 6.93, repro,
2007-11-11,-3.20, 3.89, 2.60, 2.03, 1.57, 6.93, repro,
2007-11-12,-2.65, 2.34, -5.90, 2.03, 1.58, 6.95, repro,
2007-11-13,-2.76, 1.52, -3.24, 2.03, 1.59, 7.00, repro,
2007-11-14,-2.89, 0.30, -6.34, 2.03, 1.60, 7.02, repro,
2007-11-15,-2.08, 3.04, -8.52, 2.04, 1.59, 7.02, repro,
2007-11-16,-2.70, 3.41, -4.20, 2.05, 1.59, 7.03, repro,
2007-11-17,-3.56, 2.57, 0.33, 2.03, 1.58, 6.95, repro,
2007-11-18,-3.57, 3.16, 0.18, 2.03, 1.60, 7.04, repro,
2007-11-19,-3.32, 4.49, 1.19, 2.01, 1.58, 6.95, repro,
2007-11-20,-4.00, 3.29, -8.17, 2.09, 1.67, 7.25, repro,
2007-11-21,-3.70, 2.27, -9.64, 2.09, 1.66, 7.20, repro,
2007-11-22,-2.97, 3.07, -9.83, 2.10, 1.63, 7.15, repro,
2007-11-23,-2.93, 2.94, -4.03, 2.13, 1.73, 7.44, repro,
2007-11-24,-2.28, 2.42, -3.51, 2.10, 1.69, 7.29, repro,
2007-11-25,-3.19, 2.40, -5.46, 2.09, 1.69, 7.27, repro,
2007-11-26,-3.39, 3.52, -7.63, 2.19, 1.68, 7.47, repro,
2007-11-27,-3.53, 3.50, -3.45, 2.11, 1.69, 7.24, repro,
2007-11-28,-3.07, 3.79, -6.20, 2.09, 1.65, 7.14, repro,
2007-11-29,-3.18, 2.65, -7.19, 2.16, 1.67, 7.43, repro,
2007-11-30,-2.58, 2.89, -0.57, 2.12, 1.71, 7.34, repro,
2007-12-01,-2.21, 2.57, 4.42, 2.13, 1.73, 7.42, repro,
2007-12-02,-2.38, 2.60, -7.82, 2.35, 1.88, 8.15, repro,
2007-12-03,-1.17, 2.58, -8.77, 2.41, 1.85, 8.38, repro,
2007-12-04,-1.94, 0.65, -9.46, 2.38, 1.98, 8.55, repro,
2007-12-05,-2.46, 2.76, -6.12, 2.41, 1.99, 8.57, repro,
2007-12-06,-2.69, 3.09, -1.55, 2.43, 2.00, 8.64, repro,
2007-12-07,-0.69, 3.78, -3.17, 2.29, 1.84, 8.02, repro,
2007-12-08,-0.38, 3.61, -4.46, 2.17, 1.74, 7.46, repro,
2007-12-09,-2.01, 1.19, -7.94, 2.52, 2.10, 8.89, repro,
2007-12-10,-1.18, 1.80, -4.92, 2.20, 1.78, 7.75, repro,
2007-12-11,-1.58, 2.19, -10.61, 2.12, 1.72, 7.48, repro,
2007-12-12,-1.03, 2.70, -13.88, 2.25, 1.73, 7.73, repro,
2007-12-13,-2.44, 1.77, -12.70, 2.20, 1.70, 7.47, repro,
2007-12-14,-2.34, 1.58, -9.52, 2.11, 1.61, 7.16, repro,
2007-12-15,-2.75, 2.13, -4.41, 2.11, 1.62, 7.19, repro,
2007-12-16,-2.09, 2.66, -9.40, 2.12, 1.66, 7.22, repro,
2007-12-17,-1.07, 3.68, -1.92, 2.12, 1.66, 7.23, repro,
2007-12-18,-1.08, 2.59, -3.27, 2.10, 1.62, 7.18, repro,
2007-12-19,-0.98, 3.54, -1.37, 2.13, 1.65, 7.29, repro,
2007-12-20,-3.08, 3.23, 2.93, 2.09, 1.62, 7.17, repro,
2007-12-21,-2.31, 0.05, -0.02, 2.18, 1.67, 7.43, repro,
2007-12-22,-1.85, 1.18, -7.56, 2.21, 1.69, 7.56, repro,
2007-12-23,-1.96, 1.56, -8.67, 2.16, 1.67, 7.36, repro,
2007-12-24,-2.05, 2.18, -0.52, 2.15, 1.63, 7.27, repro,
2007-12-25,-3.11, 1.56, -1.75, 2.16, 1.70, 7.39, repro,
2007-12-26,-2.83, 2.20, -3.81, 2.11, 1.62, 7.17, repro,
2007-12-27,-1.86, 1.87, -2.55, 2.20, 1.75, 7.45, repro,
2007-12-28,-2.07, 2.62, -6.78, 2.15, 1.66, 7.32, repro,
2007-12-29,-2.48, 3.28, -3.71, 2.14, 1.64, 7.27, repro,
2007-12-30,-2.65, 5.66, 0.79, 2.16, 1.66, 7.33, repro,
2007-12-31,-2.59, 3.53, 1.21, 2.06, 1.58, 7.02, repro,
2008-01-01,-1.73, 2.99, -16.89, 2.07, 1.59, 7.02, repro,
2008-01-02,-1.46, 3.50, -15.61, 2.08, 1.58, 7.03, repro,
2008-01-03,-0.91, 3.50, -5.67, 2.13, 1.64, 7.18, repro,
2008-01-04,-1.44, 2.58, -4.62, 2.06, 1.56, 6.96, repro,
2008-01-05,-2.80, 3.22, -3.19, 2.04, 1.56, 6.91, repro,
2008-01-06,-3.11, 5.00, 8.06, 2.03, 1.57, 6.93, repro,
2008-01-07,-1.47, 2.34, 1.48, 2.04, 1.57, 6.94, repro,
2008-01-08,-1.60, 3.50, -2.99, 2.10, 1.57, 7.11, repro,
2008-01-09,-1.13, 3.62, 0.28, 2.11, 1.57, 7.12, repro,
2008-01-10,-1.13, 1.88, -3.42, 2.04, 1.56, 6.95, repro,
2008-01-11,-1.86, 2.17, -1.88, 2.03, 1.56, 6.93, repro,
2008-01-12,-1.43, 1.83, -7.16, 2.03, 1.58, 6.97, repro,
2008-01-13,-2.26, 1.71, -10.18, 2.06, 1.58, 7.00, repro,
2008-01-14,-1.45, 2.29, -11.82, 2.04, 1.57, 6.94, repro,
2008-01-15,-2.21, 2.49, -5.77, 2.04, 1.58, 6.96, repro,
2008-01-16,-2.27, 2.25, -8.32, 2.10, 1.60, 7.23, repro,
2008-01-17,-1.98, 2.20, -6.78, 2.09, 1.60, 7.21, repro,
2008-01-18,-2.64, 1.27, -4.92, 2.05, 1.62, 7.14, repro,
2008-01-19,-2.03, 2.57, -11.30, 2.07, 1.59, 7.05, repro,
2008-01-20,-2.57, 3.95, -3.40, 2.02, 1.58, 6.98, repro,
2008-01-21,-2.06, 2.45, -3.16, 2.03, 1.59, 7.04, repro,
2008-01-22,-2.22, 2.45, -8.74, 2.08, 1.61, 7.13, repro,
2008-01-23,-1.70, 1.88, -8.66, 2.02, 1.58, 6.98, repro,
2008-01-24,-1.43, 2.35, -6.45, 2.03, 1.58, 6.98, repro,
2008-01-25,-1.53, 2.36, -2.17, 2.08, 1.60, 7.12, repro,
2008-01-26,-1.65, 2.30, -7.18, 2.09, 1.61, 7.18, repro,
2008-01-27,-3.66, 2.65, -3.19, 2.10, 1.62, 7.24, repro,
2008-01-28,-4.01, 0.69, 3.87, 2.02, 1.58, 6.99, repro,
2008-01-29,-1.79, 3.33, -0.13, 2.15, 1.70, 7.41, repro,
2008-01-30,-2.29, 2.83, 5.18, 2.14, 1.66, 7.27, repro,
2008-01-31,-1.23, 1.70, -4.71, 2.02, 1.58, 7.01, repro,
2008-02-01,-1.01, 1.97, -10.27, 2.04, 1.58, 7.06, repro,
2008-02-02,-2.13, 1.37, -10.51, 2.04, 1.58, 7.03, repro,
2008-02-03,-0.65, 3.66, -3.66, 2.02, 1.58, 7.00, repro,
2008-02-04,-2.55, 1.95, -9.36, 2.03, 1.58, 7.02, repro,
2008-02-05,-1.72, 1.84, -4.83, 2.11, 1.64, 7.19, repro,
2008-02-06,-1.28, 0.77, -2.84, 2.11, 1.65, 7.24, repro,
2008-02-07,-1.18, 0.90, -3.54, 2.06, 1.61, 7.17, repro,
2008-02-08,-1.69, 0.25, -9.60, 2.01, 1.57, 6.99, repro,
2008-02-09,-1.59, 0.96, -9.01, 2.03, 1.58, 7.05, repro,
2008-02-10,-1.38, 2.04, -12.52, 2.02, 1.58, 7.04, repro,
2008-02-11,-1.21, 1.99, -6.88, 2.06, 1.59, 7.06, repro,
2008-02-12,-1.51, 2.89, -11.53, 2.03, 1.58, 7.01, repro,
2008-02-13,-1.62, 2.96, -8.42, 2.03, 1.57, 6.97, repro,
2008-02-14,-2.71, 2.18, -5.59, 2.02, 1.58, 6.98, repro,
2008-02-15,-1.86, 2.89, -13.75, 2.07, 1.62, 7.14, repro,
2008-02-16,-1.97, 1.61, -9.65, 2.02, 1.57, 6.94, repro,
2008-02-17,-1.89, 1.01, -8.45, 2.02, 1.58, 6.95, repro,
2008-02-18,-2.71, 1.13, -8.51, 2.02, 1.58, 6.97, repro,
2008-02-19,-2.35, 1.64, -10.14, 2.03, 1.57, 6.96, repro,
2008-02-20,-2.59, 1.63, -10.31, 2.02, 1.57, 6.95, repro,
2008-02-21,-2.47, 2.56, -4.68, 2.03, 1.58, 6.99, repro,
2008-02-22,-1.76, 3.21, -4.94, 2.02, 1.56, 6.92, repro,
2008-02-23,-2.79, 2.73, -5.90, 2.02, 1.57, 6.97, repro,
2008-02-24,-2.88, 2.22, -10.01, 2.03, 1.58, 7.00, repro,
2008-02-25,-1.39, 2.98, -10.57, 2.02, 1.58, 6.99, repro,
2008-02-26,-1.32, 2.62, -18.25, 2.03, 1.58, 6.97, repro,
2008-02-27,-1.61, 2.57, -15.37, 2.07, 1.61, 7.12, repro,
2008-02-28,-1.76, 1.44, -10.81, 2.04, 1.61, 7.05, repro,
2008-02-29,-2.11, 2.51, -14.47, 2.03, 1.57, 6.96, repro,
2008-03-01,-1.69, 3.90, -6.46, 2.07, 1.63, 7.23, repro,
2008-03-02,-1.13, 1.56, -12.29, 2.05, 1.61, 7.15, repro,
2008-03-03,-1.68, 1.71, -14.63, 2.04, 1.58, 7.04, repro,
2008-03-04,-3.61, 3.45, -3.62, 2.03, 1.58, 7.00, repro,
2008-03-05,-2.49, 2.34, -12.74, 2.10, 1.67, 7.25, repro,
2008-03-06,-1.70, 2.23, -16.30, 2.06, 1.61, 7.15, repro,
2008-03-07,-2.71, 2.49, -13.72, 2.03, 1.58, 7.00, repro,
2008-03-08,-3.75, 1.91, -6.85, 2.09, 1.65, 7.36, repro,
2008-03-09,-3.86, 2.77, -10.22, 2.06, 1.61, 7.16, repro,
2008-03-10,-3.56, 3.38, -10.41, 2.01, 1.56, 6.90, repro,
2008-03-11,-3.71, 3.13, -12.06, 2.02, 1.56, 6.94, repro,
2008-03-12,-3.58, 2.36, -11.78, 2.04, 1.60, 7.10, repro,
2008-03-13,-3.61, 3.02, 1.79, 2.09, 1.65, 7.39, repro,
2008-03-14,-3.01, 2.11, -6.12, 2.07, 1.61, 7.21, repro,
2008-03-15,-4.34, 2.81, -7.30, 2.06, 1.61, 7.19, repro,
2008-03-16,-3.73, 2.20, -2.41, 2.09, 1.65, 7.36, repro,
2008-03-17,-3.36, 2.03, -9.57, 2.16, 1.82, 7.89, repro,
2008-03-18,-2.82, 2.43, -9.40, 2.10, 1.68, 7.38, repro,
2008-03-19,-4.21, 3.06, -3.47, 2.05, 1.61, 7.12, repro,
2008-03-20,-5.03, 4.70, -1.24, 2.08, 1.61, 7.19, repro,
2008-03-21,-3.64, 3.23, -11.03, 2.07, 1.62, 7.19, repro,
2008-03-22,-4.23, 3.15, -15.74, 2.07, 1.65, 7.29, repro,
2008-03-23,-3.97, 2.95, -14.91, 2.09, 1.65, 7.34, repro,
2008-03-24,-3.90, 4.12, -3.30, 2.06, 1.61, 7.17, repro,
2008-03-25,-4.38, 4.71, -0.33, 2.12, 1.66, 7.27, repro,
2008-03-26,-4.98, 3.64, -6.08, 2.11, 1.66, 7.20, repro,
2008-03-27,-4.65, 3.86, -11.41, 2.09, 1.65, 7.20, repro,
2008-03-28,-4.07, 2.96, -9.82, 2.06, 1.60, 7.02, repro,
2008-03-29,-4.20, 3.28, -1.22, 2.06, 1.58, 7.10, repro,
2008-03-30,-3.89, 3.22, -11.69, 2.05, 1.58, 7.04, repro,
2008-03-31,-5.44, 4.04, -8.46, 2.05, 1.57, 7.01, repro,
2008-04-01,-5.09, 3.07, -3.75, 2.05, 1.57, 7.03, repro,
2008-04-02,-5.49, 3.37, -4.85, 2.09, 1.58, 7.12, repro,
2008-04-03,-3.86, 2.89, -8.64, 2.05, 1.57, 7.04, repro,
2008-04-04,-4.65, 3.71, -8.98, 2.04, 1.58, 7.02, repro,
2008-04-05,-4.28, 4.21, -2.07, 2.06, 1.58, 7.05, repro,
2008-04-06,-5.72, 4.31, -5.50, 2.04, 1.56, 6.94, repro,
2008-04-07,-4.72, 4.20, -9.30, 2.05, 1.57, 7.00, repro,
2008-04-08,-5.17, 3.35, -6.28, 2.04, 1.57, 6.99, repro,
2008-04-09,-4.40, 2.71, -5.62, 2.05, 1.58, 7.04, repro,
2008-04-10,-4.52, 2.80, -6.59, 2.06, 1.58, 7.06, repro,
2008-04-11,-3.70, 3.52, -10.70, 2.05, 1.56, 7.02, repro,
2008-04-12,-4.78, 3.51, -17.05, 2.04, 1.57, 6.98, repro,
2008-04-13,-4.39, 4.19, -14.27, 2.05, 1.56, 7.00, repro,
2008-04-14,-4.53, 4.30, -8.78, 2.04, 1.56, 6.96, repro,
2008-04-15,-5.81, 4.43, -5.32, 2.07, 1.62, 7.08, repro,
2008-04-16,-4.85, 2.86, -6.74, 2.07, 1.62, 7.08, repro,
2008-04-17,-4.53, 3.62, -10.99, 2.04, 1.56, 6.91, repro,
2008-04-18,-5.71, 3.86, -11.21, 2.05, 1.56, 6.94, repro,
2008-04-19,-7.21, 2.98, -0.16, 2.04, 1.55, 6.93, repro,
2008-04-20,-6.23, 4.92, -7.23, 2.04, 1.55, 6.93, repro,
2008-04-21,-4.97, 4.43, -9.67, 2.05, 1.56, 6.94, repro,
2008-04-22,-5.89, 4.70, -9.10, 2.05, 1.55, 6.95, repro,
2008-04-23,-6.32, 5.22, -11.01, 2.13, 1.62, 7.28, repro,
2008-04-24,-5.94, 5.26, -5.78, 2.07, 1.58, 7.07, repro,
2008-04-25,-5.31, 3.95, -12.65, 2.06, 1.56, 6.97, repro,
2008-04-26,-5.72, 4.32, -14.16, 2.15, 1.59, 7.15, repro,
2008-04-27,-5.39, 4.02, -17.06, 2.15, 1.60, 7.18, repro,
2008-04-28,-7.04, 4.19, -13.68, 2.16, 1.58, 7.16, repro,
2008-04-29,-6.50, 5.72, -1.82, 2.22, 1.60, 7.30, repro,
2008-04-30,-6.09, 4.46, -4.36, 2.12, 1.60, 7.20, repro,
2008-05-01,-4.59, 4.82, -10.95, 2.11, 1.58, 7.11, repro,
2008-05-02,-5.93, 4.25, -11.07, 2.13, 1.62, 7.24, repro,
2008-05-03,-4.99, 5.00, -11.69, 2.12, 1.59, 7.12, repro,
2008-05-04,-6.15, 5.05, -7.58, 2.09, 1.56, 7.03, repro,
2008-05-05,-6.15, 5.21, -12.80, 2.12, 1.58, 7.13, repro,
2008-05-06,-5.42, 4.95, -7.57, 2.12, 1.59, 7.17, repro,
2008-05-07,-6.13, 5.61, -7.02, 2.09, 1.58, 7.04, repro,
2008-05-08,-5.87, 3.14, -9.17, 2.10, 1.60, 7.10, repro,
2008-05-09,-5.91, 5.25, -10.14, 2.10, 1.58, 7.05, repro,
2008-05-10,-5.79, 5.00, -7.36, 2.08, 1.55, 6.95, repro,
2008-05-11,-6.10, 4.87, -2.99, 2.11, 1.58, 7.08, repro,
2008-05-12,-7.86, 3.54, -2.73, 2.15, 1.60, 7.23, repro,
2008-05-13,-7.15, 3.90, -9.78, 2.07, 1.55, 6.94, repro,
2008-05-14,-6.27, 4.72, -13.50, 2.09, 1.55, 6.97, repro,
2008-05-15,-6.10, 5.64, -13.64, 2.10, 1.56, 7.03, repro,
2008-05-16,-6.54, 4.54, -11.67, 2.09, 1.55, 7.00, repro,
2008-05-17,-6.68, 4.39, -14.84, 2.11, 1.58, 7.09, repro,
2008-05-18,-6.09, 3.40, -16.89, 2.13, 1.59, 7.23, repro,
2008-05-19,-6.79, 4.34, -7.87, 2.07, 1.55, 7.00, repro,
2008-05-20,-6.50, 4.73, -3.80, 2.07, 1.55, 7.02, repro,
2008-05-21,-6.88, 3.70, 6.63, 2.11, 1.62, 7.25, repro,
2008-05-22,-6.10, 4.16, 0.22, 2.09, 1.57, 7.10, repro,
2008-05-23,-6.43, 3.97, -0.97, 2.08, 1.58, 7.12, repro,
2008-05-24,-4.53, 4.19, -7.42, 2.07, 1.55, 7.01, repro,
2008-05-25,-6.72, 4.17, -5.71, 2.10, 1.59, 7.15, repro,
2008-05-26,-4.64, 4.15, -6.18, 2.09, 1.59, 7.17, repro,
2008-05-27,-5.09, 4.27, -9.19, 2.10, 1.60, 7.21, repro,
2008-05-28,-5.81, 4.07, -0.78, 2.07, 1.55, 7.01, repro,
2008-05-29,-4.72, 3.65, -13.16, 2.10, 1.61, 7.17, repro,
2008-05-30,-6.63, 3.89, -1.70, 2.10, 1.60, 7.24, repro,
2008-05-31,-6.08, 4.61, -4.44, 2.06, 1.56, 7.08, repro,
2008-06-01,-4.86, 4.49, -5.04, 2.06, 1.57, 7.10, repro,
2008-06-02,-6.04, 4.29, -2.32, 2.10, 1.60, 7.23, repro,
2008-06-03,-5.92, 4.47, -6.58, 2.14, 1.62, 7.32, repro,
2008-06-04,-4.89, 3.29, -0.74, 2.06, 1.55, 6.98, repro,
2008-06-05,-5.29, 2.97, 0.82, 2.05, 1.54, 6.92, repro,
2008-06-06,-4.68, 4.47, -1.68, 2.07, 1.59, 7.11, repro,
2008-06-07,-5.70, 3.51, 4.86, 2.11, 1.64, 7.25, repro,
2008-06-08,-4.95, 3.47, -5.48, 2.11, 1.61, 7.13, repro,
2008-06-09,-6.25, 3.73, -2.62, 2.11, 1.61, 7.14, repro,
2008-06-10,-6.12, 4.45, -10.43, 2.07, 1.55, 6.96, repro,
2008-06-11,-3.93, 3.78, -3.93, 2.06, 1.56, 6.95, repro,
2008-06-12,-6.44, 4.40, -3.41, 2.07, 1.59, 7.08, repro,
2008-06-13,-5.79, 5.02, -8.43, 2.07, 1.56, 7.03, repro,
2008-06-14,-5.09, 4.10, -9.45, 2.14, 1.60, 7.22, repro,
2008-06-15,-5.59, 4.26, -8.28, 2.14, 1.60, 7.25, repro,
2008-06-16,-5.87, 4.83, -6.58, 2.08, 1.57, 7.07, repro,
2008-06-17,-5.10, 4.47, -9.31, 2.06, 1.57, 7.01, repro,
2008-06-18,-5.63, 5.88, -7.94, 2.08, 1.58, 7.14, repro,
2008-06-19,-5.18, 5.20, -12.41, 2.11, 1.64, 7.27, repro,
2008-06-20,-6.26, 5.59, -7.26, 2.08, 1.58, 7.08, repro,
2008-06-21,-5.18, 6.20, -11.71, 2.07, 1.57, 7.03, repro,
2008-06-22,-4.50, 5.28, -12.85, 2.07, 1.57, 7.01, repro,
2008-06-23,-6.51, 5.32, -3.01, 2.07, 1.57, 7.01, repro,
2008-06-24,-6.91, 5.69, 0.31, 2.07, 1.58, 7.07, repro,
2008-06-25,-6.51, 5.82, -4.46, 2.08, 1.57, 7.04, repro,
2008-06-26,-7.03, 7.20, -2.18, 2.15, 1.67, 7.27, repro,
2008-06-27,-7.36, 5.02, -7.89, 2.08, 1.57, 7.04, repro,
2008-06-28,-6.02, 5.37, -5.49, 2.12, 1.62, 7.11, repro,
2008-06-29,-5.73, 6.31, -5.50, 2.11, 1.63, 7.13, repro,
2008-06-30,-6.38, 4.62, -9.17, 2.07, 1.57, 7.04, repro,
2008-07-01,-7.93, 6.48, -4.78, 2.09, 1.58, 7.06, repro,
2008-07-02,-8.26, 5.59, -4.04, 2.15, 1.58, 7.16, repro,
2008-07-03,-5.23, 7.43, -2.89, 2.08, 1.57, 7.03, repro,
2008-07-04,-5.86, 5.64, -1.19, 2.06, 1.55, 6.98, repro,
2008-07-05,-4.74, 5.24, 1.59, 2.07, 1.59, 7.07, repro,
2008-07-06,-6.06, 5.14, 0.79, 2.09, 1.60, 7.08, repro,
2008-07-07,-6.79, 3.27, -1.49, 2.13, 1.64, 7.17, repro,
2008-07-08,-5.40, 5.64, -6.82, 2.08, 1.55, 6.99, repro,
2008-07-09,-6.11, 6.29, -7.52, 2.11, 1.63, 7.11, repro,
2008-07-10,-6.99, 6.32, -5.40, 2.13, 1.61, 7.21, repro,
2008-07-11,-5.84, 6.18, -1.07, 2.24, 1.74, 7.66, repro,
2008-07-12,-5.14, 5.66, -5.99, 2.06, 1.57, 6.98, repro,
2008-07-13,-4.83, 5.33, 0.14, 2.16, 1.69, 7.34, repro,
2008-07-14,-6.94, 6.60, 0.74, 2.08, 1.58, 7.02, repro,
2008-07-15,-5.08, 5.11, -0.35, 2.06, 1.58, 7.03, repro,
2008-07-16,-5.53, 5.75, -6.97, 2.06, 1.57, 7.05, repro,
2008-07-17,-6.56, 6.65, -9.40, 2.20, 1.80, 7.84, repro,
2008-07-18,-6.57, 7.50, -7.52, 2.14, 1.60, 7.24, repro,
2008-07-19,-7.00, 6.35, -1.43, 2.12, 1.57, 7.08, repro,
2008-07-20,-6.82, 7.36, -4.55, 2.08, 1.57, 7.09, repro,
2008-07-21,-6.15, 7.19, -3.43, 2.07, 1.57, 7.00, repro,
2008-07-22,-3.57, 5.55, -4.54, 2.22, 1.77, 7.95, repro,
2008-07-23,-3.03, 1.08, 11.27, 2.12, 1.59, 7.19, repro,
2008-07-24,-7.36, 8.17, -0.51, 2.08, 1.59, 7.06, repro,
2008-07-25,-4.67, 4.87, -2.15, 2.07, 1.56, 6.97, repro,
2008-07-26,-3.50, 5.98, -2.75, 2.07, 1.57, 7.06, repro,
2008-07-27,-7.04, 5.29, 5.11, 2.08, 1.58, 7.09, repro,
2008-07-28,-4.98, 7.65, -8.35, 2.34, 1.82, 8.12, repro,
2008-07-29,-4.84, 7.35, 4.27, 2.11, 1.59, 7.15, repro,
2008-07-30,-4.00, 4.98, 7.12, 2.12, 1.57, 7.14, repro,
2008-07-31,-5.06, 4.14, 2.92, 2.05, 1.55, 6.96, repro,
2008-08-01,-4.93, 5.59, 6.92, 2.05, 1.56, 7.00, repro,
2008-08-02,-5.21, 6.26, 1.30, 2.05, 1.55, 6.99, repro,
2008-08-03,-5.08, 3.61, 0.15, 2.12, 1.60, 7.19, repro,
2008-08-04,-1.99, 5.21, 4.77, 2.17, 1.73, 7.62, repro,
2008-08-05,-3.98, 4.47, -0.87, 2.06, 1.55, 6.97, repro,
2008-08-06,-5.52, 4.91, 0.12, 2.09, 1.57, 7.05, repro,
2008-08-07,-5.96, 4.10, 5.46, 2.13, 1.63, 7.19, repro,
2008-08-08,-3.34, 5.28, -4.09, 2.20, 1.67, 7.41, repro,
2008-08-09,-4.61, 4.57, -9.32, 2.10, 1.56, 7.01, repro,
2008-08-10,-0.97, 5.52, -9.02, 2.13, 1.60, 7.21, repro,
2008-08-11,-3.41, 5.12, 0.18, 2.09, 1.57, 7.05, repro,
2008-08-12,-6.07, 3.93, 1.35, 2.08, 1.57, 7.04, repro,
2008-08-13,-5.00, 3.61, 6.07, 2.15, 1.63, 7.21, repro,
2008-08-14,-6.22, 4.43, 0.72, 2.10, 1.58, 7.07, repro,
2008-08-15,-3.78, 3.39, -2.04, 2.11, 1.56, 7.06, repro,
2008-08-16,-5.90, 5.45, 1.64, 2.11, 1.58, 7.11, repro,
2008-08-17,-5.74, 4.29, -0.52, 2.09, 1.57, 7.07, repro,
2008-08-18,-6.50, 4.60, 1.48, 2.11, 1.59, 7.14, repro,
2008-08-19,-5.30, 5.48, -1.67, 2.11, 1.58, 7.10, repro,
2008-08-20,-5.56, 5.59, 6.63, 2.11, 1.56, 7.01, repro,
2008-08-21,-4.68, 6.05, 5.24, 2.11, 1.57, 7.09, repro,
2008-08-22,-5.01, 3.45, -1.06, 2.09, 1.58, 7.06, repro,
2008-08-23,-6.99, 3.36, 1.05, 2.10, 1.58, 7.08, repro,
2008-08-24,-6.47, 6.21, -4.65, 2.12, 1.61, 7.21, repro,
2008-08-25,-3.96, 3.81, 5.22, 2.11, 1.57, 7.06, repro,
2008-08-26,-4.74, 4.81, 5.74, 2.11, 1.56, 7.01, repro,
2008-08-27,-4.78, 3.98, 2.57, 2.13, 1.62, 7.21, repro,
2008-08-28,-5.34, 3.87, 4.22, 2.24, 1.66, 7.61, repro,
2008-08-29,-4.86, 4.28, 1.76, 2.13, 1.62, 7.22, repro,
2008-08-30,-5.93, 5.38, 6.98, 2.12, 1.61, 7.17, repro,
2008-08-31,-4.13, 5.45, 10.26, 2.14, 1.60, 7.18, repro,
2008-09-01,-6.50, 1.91, 9.13, 2.13, 1.62, 7.24, repro,
2008-09-02,-7.04, 2.52, -7.25, 2.12, 1.60, 7.18, repro,
2008-09-03,-6.39, 2.59, 1.93, 2.12, 1.62, 7.21, repro,
2008-09-04,-6.45, 2.37, -0.50, 2.26, 1.70, 7.71, repro,
2008-09-05,-5.71, 2.46, -5.54, 2.16, 1.65, 7.37, repro,
2008-09-06,-7.18, 1.96, -1.41, 2.10, 1.58, 7.09, repro,
2008-09-07,-6.36, 3.31, -2.15, 2.16, 1.64, 7.35, repro,
2008-09-08,-5.56, 1.86, -2.72, 2.16, 1.65, 7.39, repro,
2008-09-09,-7.40, 1.74, -3.07, 2.15, 1.60, 7.24, repro,
2008-09-10,-6.32, 1.85, 0.93, 2.26, 1.76, 7.72, repro,
2008-09-11,-6.09, 1.29, -4.04, 2.19, 1.71, 7.58, repro,
2008-09-12,-5.12, 2.32, 3.85, 2.32, 1.76, 8.00, repro,
2008-09-13,-5.47, 2.25, -1.12, 2.20, 1.71, 7.60, repro,
2008-09-14,-5.44, 3.37, -4.53, 2.16, 1.64, 7.33, repro,
2008-09-15,-6.17, 2.70, -7.88, 2.15, 1.64, 7.35, repro,
2008-09-16,-6.59, 3.49, -1.03, 2.12, 1.62, 7.25, repro,
2008-09-17,-6.36, 4.01, -5.79, 2.26, 1.67, 7.51, repro,
2008-09-18,-5.83, 2.18, -4.89, 2.14, 1.62, 7.29, repro,
2008-09-19,-5.39, 4.50, 2.40, 2.18, 1.67, 7.40, repro,
2008-09-20,-5.30, 4.25, 2.72, 2.10, 1.57, 7.06, repro,
2008-09-21,-7.54, 4.30, 9.09, 2.10, 1.56, 7.04, repro,
2008-09-22,-5.65, 3.89, 8.13, 2.14, 1.61, 7.22, repro,
2008-09-23,-6.65, 3.27, -0.70, 2.09, 1.56, 7.00, repro,
2008-09-24,-7.12, 3.19, 2.05, 2.25, 1.76, 7.49, repro,
2008-09-25,-6.66, 4.67, -9.75, 2.11, 1.58, 7.08, repro,
2008-09-26,-7.14, 3.36, 3.80, 2.10, 1.57, 7.05, repro,
2008-09-27,-6.46, 2.88, -2.34, 2.19, 1.69, 7.55, repro,
2008-09-28,-5.05, 2.61, -3.86, 2.14, 1.62, 7.30, repro,
2008-09-29,-5.26, 3.41, -6.77, 2.15, 1.61, 7.25, repro,
2008-09-30,-4.64, 2.93, -2.58, 2.10, 1.58, 7.07, repro,
2008-10-01,-6.53, 2.76, -1.02, 2.10, 1.57, 7.05, repro,
2008-10-02,-7.24, 4.30, 0.01, 2.18, 1.65, 7.39, repro,
2008-10-03,-5.74, 3.92, -3.43, 2.18, 1.66, 7.40, repro,
2008-10-04,-6.16, 3.45, 4.29, 2.10, 1.55, 6.98, repro,
2008-10-05,-4.27, 2.45, 1.80, 2.11, 1.56, 7.02, repro,
2008-10-06,-3.02, 2.68, -2.08, 2.09, 1.56, 6.98, repro,
2008-10-07,-4.01, 3.23, -5.31, 2.13, 1.56, 7.10, repro,
2008-10-08,-3.91, 1.77, -1.54, 2.13, 1.60, 7.19, repro,
2008-10-09,-3.25, 3.39, 2.18, 2.08, 1.57, 7.01, repro,
2008-10-10,-3.19, 3.50, -2.75, 2.06, 1.54, 6.90, repro,
2008-10-11,-2.98, 2.66, 2.44, 2.08, 1.57, 7.07, repro,
2008-10-12,-2.82, 2.91, -3.76, 2.06, 1.54, 6.94, repro,
2008-10-13,-3.55, 2.50, -8.76, 2.07, 1.55, 6.99, repro,
2008-10-14,-2.96, 2.31, -5.80, 2.06, 1.54, 6.96, repro,
2008-10-15,-3.52, 2.89, -7.73, 2.13, 1.55, 7.10, repro,
2008-10-16,-3.34, 2.88, -7.87, 2.15, 1.56, 7.15, repro,
2008-10-17,-3.20, 3.44, -12.89, 2.05, 1.54, 6.95, repro,
2008-10-18,-3.22, 3.60, -10.52, 2.05, 1.54, 6.92, repro,
2008-10-19,-3.01, 2.54, -6.89, 2.07, 1.55, 7.02, repro,
2008-10-20,-3.78, 3.08, -1.48, 2.06, 1.54, 6.95, repro,
2008-10-21,-3.55, 4.68, -0.30, 2.11, 1.56, 7.08, repro,
2008-10-22,-4.50, 2.40, -8.10, 2.05, 1.55, 6.96, repro,
2008-10-23,-4.44, 3.30, -6.67, 2.05, 1.53, 6.88, repro,
2008-10-24,-3.05, 2.64, -3.47, 2.06, 1.56, 7.02, repro,
2008-10-25,-3.31, 2.65, -3.34, 2.07, 1.55, 6.99, repro,
2008-10-26,-3.29, 2.94, -9.86, 2.06, 1.54, 6.94, repro,
2008-10-27,-4.14, 2.92, -15.13, 2.05, 1.54, 6.93, repro,
2008-10-28,-3.76, 3.37, -11.73, 2.17, 1.62, 7.28, repro,
2008-10-29,-4.48, 2.53, -4.69, 2.16, 1.59, 7.13, repro,
2008-10-30,-4.08, 2.44, -7.06, 2.06, 1.55, 6.97, repro,
2008-10-31,-3.69, 4.13, -12.34, 2.16, 1.63, 7.34, repro,
2008-11-01,-3.06, 4.37, -1.57, 2.07, 1.55, 6.97, repro,
2008-11-02,-2.77, 3.57, -1.89, 2.13, 1.61, 7.25, repro,
2008-11-03,-3.04, 1.88, 0.47, 2.13, 1.62, 7.18, repro,
2008-11-04,-2.86, 0.72, 15.22, 2.11, 1.61, 7.13, repro,
2008-11-05,-3.14, 0.56, -4.62, 2.12, 1.63, 7.21, repro,
2008-11-06,-2.93, 1.42, -7.30, 2.09, 1.58, 7.06, repro,
2008-11-07,-3.04, 1.06, -8.38, 2.13, 1.63, 7.22, repro,
2008-11-08,-3.67, 2.19, -7.48, 2.11, 1.61, 7.19, repro,
2008-11-09,-3.71, 0.87, 4.73, 2.08, 1.59, 7.12, repro,
2008-11-10,-2.01, 1.35, 2.25, 2.14, 1.64, 7.23, repro,
2008-11-11,-3.25, 0.34, -6.24, 2.23, 1.70, 7.68, repro,
2008-11-12,-1.72, 0.25, -0.26, 2.09, 1.56, 7.01, repro,
2008-11-13,-1.07, -0.08, 0.12, 2.14, 1.61, 7.14, repro,
2008-11-14,-2.07, 0.31, -8.61, 2.16, 1.67, 7.34, repro,
2008-11-15,-3.20, 0.89, -10.97, 2.14, 1.65, 7.26, repro,
2008-11-16,-2.38, 0.07, -9.98, 2.13, 1.61, 7.20, repro,
2008-11-17,-3.37, 1.03, -12.48, 2.19, 1.70, 7.48, repro,
2008-11-18,-3.28, 1.26, -11.35, 2.23, 1.72, 7.72, repro,